Location: Austin
(30.3000°N, 97.7500°W)
Time: 22:56:27
(UTC-05:00)

Cosmos 1408 Rocket - Pass Details

Date: 08 April 2026
Orbit: 594 x 623 km, 82.6° (Epoch: 20 April)

Event Time Altitude Azimuth Distance (km) Brightness Sun altitude
Rises 20:19:54 0° 194° (SSW) 2,885 7.0 -6.2°
Reaches altitude 10° 20:22:09 10° 198° (SSW) 1,984 6.2 -6.7°
Maximum altitude 20:26:28 57° 277° (W) 734 4.4 -7.6°
Drops below altitude 10° 20:30:49 10° 357° (N) 1,991 6.4 -8.5°
Sets 20:33:05 0° 1° (N) 2,897 7.2 -9.0°
